Weather History for Ozona, TX

Change the Weather History Date:

Wednesday, January 2, 2013

  Actual Average Record
Temperature  
Mean Temperature 40 °F -  
Max Temperature 51 °F 54 °F 57 °F (2012)
Min Temperature 30 °F 30 °F 24 °F (2012)
Degree Days  
Heating Degree Days 24    
Moisture  
Dew Point 25 °F    
Average Humidity 62    
Maximum Humidity 86    
Minimum Humidity 30    
Precipitation  
Precipitation 0.00 in - - ()
Sea Level Pressure  
Sea Level Pressure 30.25 in    
Wind  
Wind Speed 4 mph (ENE)    
Max Wind Speed 12 mph    
Max Gust Speed -    
Visibility 10 miles    
Events      
Averages and records for this station are not official NWS values.
T = Trace of Precipitation, MM = Missing Value Source: NWS Daily Summary

Daily Weather History Graph

Daily Weather History Graph

Search for Another Location

Airport:

Trip Planner

Search our weather history database for the weather conditions in past years. The results will help you decide how hot, cold, wet, or windy it might be!

Date:

Astronomy

Jan. 02, 2013 Rise Set
Actual Time 7:42 AM CST 5:55 PM CST
Civil Twilight 7:16 AM CST 6:22 PM CST
Nautical Twilight 6:46 AM CST 6:52 PM CST
Astronomical Twilight 6:16 AM CST 7:21 PM CST
Moon 11:05 PM CST (1/2) 10:47 AM CST (1/2)
Length of Visible Light 11h 05m
Length of Day
10h 12m
Waning Gibbous, 75% of the Moon is Illuminated
Jan 2
Waning Gibbous
Jan 4
Last Quarter
Jan 11
New
Jan 18
First Quarter
Jan 26
Full

Hourly Weather History & Observations

Time (CST) Temp. Windchill Dew Point Humidity Pressure Visibility Wind Dir Wind Speed Gust Speed Precip Events Conditions
12:15 AM 35.6 °F 29.9 °F 28.4 °F 75% 30.26 in 10.0 mi NNE 6.9 mph - N/A   Clear
12:35 AM 33.8 °F - 28.4 °F 81% 30.26 in 10.0 mi Calm Calm - N/A   Clear
12:55 AM 33.8 °F 28.6 °F 28.4 °F 81% 30.26 in 10.0 mi NNE 5.8 mph - N/A   Clear
1:15 AM 33.8 °F 29.6 °F 26.6 °F 75% 30.26 in 10.0 mi NE 4.6 mph - N/A   Clear
1:35 AM 33.8 °F 30.8 °F 26.6 °F 75% 30.26 in 10.0 mi NE 3.5 mph - N/A   Clear
1:55 AM 33.8 °F - 26.6 °F 75% 30.25 in 10.0 mi Calm Calm - N/A   Clear
2:15 AM 33.8 °F - 26.6 °F 75% 30.26 in 10.0 mi Calm Calm - N/A   Clear
2:35 AM 33.8 °F - 26.6 °F 75% 30.26 in 10.0 mi Calm Calm - N/A   Clear
2:55 AM 32.0 °F - 26.6 °F 80% 30.26 in 10.0 mi Calm Calm - N/A   Clear
3:15 AM 32.0 °F - 26.6 °F 80% 30.26 in 10.0 mi Calm Calm - N/A   Clear
3:35 AM 32.0 °F 28.7 °F 26.6 °F 80% 30.27 in 10.0 mi NNE 3.5 mph - N/A   Clear
3:55 AM 32.0 °F 28.7 °F 26.6 °F 80% 30.27 in 10.0 mi NNE 3.5 mph - N/A   Clear
4:15 AM 32.0 °F - 26.6 °F 80% 30.26 in 10.0 mi Calm Calm - N/A   Clear
4:35 AM 32.0 °F 28.7 °F 26.6 °F 80% 30.26 in 10.0 mi NNE 3.5 mph - N/A   Clear
4:55 AM 32.0 °F - 26.6 °F 80% 30.26 in 10.0 mi Calm Calm - N/A   Clear
5:15 AM 32.0 °F 27.5 °F 24.8 °F 75% 30.26 in 10.0 mi NNE 4.6 mph - N/A   Clear
5:35 AM 32.0 °F 25.6 °F 26.6 °F 80% 30.26 in 10.0 mi NNE 6.9 mph - N/A   Clear
5:55 AM 32.0 °F 27.5 °F 26.6 °F 80% 30.25 in 10.0 mi NNE 4.6 mph - N/A   Clear
6:15 AM 30.2 °F 25.4 °F 26.6 °F 86% 30.25 in 10.0 mi NNE 4.6 mph - N/A   Clear
6:35 AM 30.2 °F 24.3 °F 24.8 °F 80% 30.26 in 10.0 mi North 5.8 mph - N/A   Clear
6:55 AM 30.2 °F 21.9 °F 26.6 °F 86% 30.28 in 10.0 mi NNE 9.2 mph - N/A   Clear
7:15 AM 30.2 °F 23.4 °F 24.8 °F 80% 30.28 in 10.0 mi NNE 6.9 mph - N/A   Clear
7:35 AM 30.2 °F 25.4 °F 24.8 °F 80% 30.29 in 10.0 mi NNE 4.6 mph - N/A   Clear
7:55 AM 30.2 °F 25.4 °F 24.8 °F 80% 30.28 in 10.0 mi NNE 4.6 mph - N/A   Clear
8:15 AM 30.2 °F 22.6 °F 24.8 °F 80% 30.28 in 10.0 mi NNE 8.1 mph - N/A   Clear
8:35 AM 30.2 °F 25.4 °F 24.8 °F 80% 30.28 in 10.0 mi NNE 4.6 mph - N/A   Clear
8:55 AM 32.0 °F 28.7 °F 24.8 °F 75% 30.28 in 10.0 mi NNE 3.5 mph - N/A   Clear
9:15 AM 32.0 °F 27.5 °F 24.8 °F 75% 30.29 in 10.0 mi NE 4.6 mph - N/A   Clear
9:35 AM 33.8 °F 30.8 °F 24.8 °F 70% 30.30 in 10.0 mi NE 3.5 mph - N/A   Clear
9:55 AM 35.6 °F 30.7 °F 24.8 °F 65% 30.30 in 10.0 mi ENE 5.8 mph - N/A   Clear
10:15 AM 37.4 °F 34.9 °F 24.8 °F 60% 30.30 in 10.0 mi ENE 3.5 mph - N/A   Clear
10:35 AM 37.4 °F 34.9 °F 24.8 °F 60% 30.30 in 10.0 mi East 3.5 mph - N/A   Clear
10:55 AM 39.2 °F 35.9 °F 24.8 °F 56% 30.30 in 10.0 mi East 4.6 mph - N/A   Clear
11:15 AM 41.0 °F 39.0 °F 24.8 °F 53% 30.29 in 10.0 mi ENE 3.5 mph - N/A   Clear
11:35 AM 41.0 °F 38.0 °F 26.6 °F 57% 30.28 in 10.0 mi East 4.6 mph - N/A   Clear
11:55 AM 42.8 °F 41.1 °F 26.6 °F 53% 30.27 in 10.0 mi East 3.5 mph - N/A   Clear
12:15 PM 44.6 °F 43.1 °F 26.6 °F 49% 30.25 in 10.0 mi ENE 3.5 mph - N/A   Clear
12:35 PM 44.6 °F - 24.8 °F 46% 30.24 in 10.0 mi Calm Calm - N/A   Clear
12:55 PM 46.4 °F 42.9 °F 24.8 °F 43% 30.24 in 10.0 mi East 6.9 mph - N/A   Clear
1:35 PM 48.2 °F - 24.8 °F 40% 30.22 in 10.0 mi ENE 3.5 mph - N/A   Clear
1:55 PM 50.0 °F - 24.8 °F 37% 30.20 in 10.0 mi ENE 5.8 mph - N/A   Clear
2:15 PM 50.0 °F - 24.8 °F 37% 30.21 in 10.0 mi East 4.6 mph - N/A   Clear
2:35 PM 50.0 °F - 23.0 °F 35% 30.20 in 10.0 mi Calm Calm - N/A   Clear
2:55 PM 50.0 °F - 23.0 °F 35% 30.19 in 10.0 mi ENE 5.8 mph - N/A   Clear
3:15 PM 51.8 °F - 23.0 °F 33% 30.18 in 10.0 mi ESE 5.8 mph - N/A   Clear
3:35 PM 51.8 °F - 21.2 °F 30% 30.19 in 10.0 mi ESE 5.8 mph - N/A   Clear
4:15 PM 51.8 °F - 21.2 °F 30% 30.19 in 10.0 mi ESE 4.6 mph - N/A   Clear
4:35 PM 51.8 °F - 21.2 °F 30% 30.19 in 10.0 mi ENE 6.9 mph - N/A   Clear
4:55 PM 50.0 °F - 21.2 °F 32% 30.19 in 10.0 mi East 9.2 mph - N/A   Clear
5:15 PM 50.0 °F - 21.2 °F 32% 30.19 in 10.0 mi East 5.8 mph - N/A   Clear
5:35 PM 50.0 °F - 23.0 °F 35% 30.19 in 10.0 mi ESE 8.1 mph - N/A   Clear
5:55 PM 46.4 °F 42.9 °F 23.0 °F 40% 30.20 in 10.0 mi East 6.9 mph - N/A   Clear
6:15 PM 44.6 °F 40.2 °F 23.0 °F 43% 30.21 in 10.0 mi East 8.1 mph - N/A   Clear
6:35 PM 44.6 °F 39.7 °F 24.8 °F 46% 30.22 in 10.0 mi East 9.2 mph - N/A   Clear
6:55 PM 42.8 °F 38.6 °F 24.8 °F 49% 30.22 in 10.0 mi East 6.9 mph - N/A   Clear
7:15 PM 41.0 °F 35.2 °F 24.8 °F 53% 30.22 in 10.0 mi ENE 9.2 mph - N/A   Clear
7:35 PM 41.0 °F 35.2 °F 26.6 °F 57% 30.24 in 10.0 mi ENE 9.2 mph - N/A   Clear
7:55 PM 37.4 °F 30.8 °F 26.6 °F 65% 30.24 in 10.0 mi ENE 9.2 mph - N/A   Clear
8:15 PM 37.4 °F 31.4 °F 26.6 °F 65% 30.26 in 10.0 mi ENE 8.1 mph - N/A   Clear
8:35 PM 37.4 °F 30.8 °F 26.6 °F 65% 30.27 in 10.0 mi East 9.2 mph - N/A   Clear
8:55 PM 37.4 °F 30.8 °F 26.6 °F 65% 30.28 in 10.0 mi East 9.2 mph - N/A   Clear
9:15 PM 37.4 °F 30.3 °F 26.6 °F 65% 30.28 in 10.0 mi East 10.4 mph - N/A   Clear
9:35 PM 37.4 °F 30.3 °F 26.6 °F 65% 30.28 in 10.0 mi East 10.4 mph - N/A   Clear
9:55 PM 37.4 °F 29.8 °F 24.8 °F 60% 30.28 in 10.0 mi East 11.5 mph - N/A   Clear
10:15 PM 35.6 °F 28.0 °F 24.8 °F 65% 30.28 in 10.0 mi East 10.4 mph - N/A   Clear
10:35 PM 35.6 °F 28.6 °F 24.8 °F 65% 30.29 in 10.0 mi ESE 9.2 mph - N/A   Clear
10:55 PM 33.8 °F - 24.8 °F 70% 30.30 in 10.0 mi Calm Calm - N/A   Clear
11:15 PM 32.0 °F - 23.0 °F 69% 30.30 in 10.0 mi Calm Calm - N/A   Clear
11:35 PM 33.8 °F - 23.0 °F 65% 30.30 in 10.0 mi Calm Calm - N/A   Clear
11:55 PM 32.0 °F - 23.0 °F 69% 30.30 in 10.0 mi Calm Calm - N/A   Clear